Find USA 286

NORAD ID: 43446 Int'l Des: 2018-036 Owner: AFRL Country: US operational
MEOCIRCULAR

現在のビュー

3D地球を読み込み中...

About USA 286

USA 286 (NORAD 43446) is a satellite launched Apr 14, 2018 by AFRL of US. It operates in MEO, CIRCULAR orbit with a mass of 100.00 kg.

次回通過

Passes for default location (London). Set your location on the main map for personalized predictions.

高度履歴

Loading altitude history...

軌道要素

1 43446U 18036F 26183.06784586 -.00000180 00000-0 00000-0 0 9993
2 43446 7.1482 66.7455 0010519 165.9237 352.0955 1.02122725 27074
Epoch: Jul 2, 2026 • Age: 289 hours

現在のステータス

高度 35279.2 km
遠地点 / 近地点 N/A
速度 3.09 km/s
衛星直下点 -7.08°S, 0.32°E
打ち上げ日 Apr 14, 2018
運用期間 8.2 years
タイプ military

技術仕様

分類 Payload
質量 100.00 kg
乾燥質量 80.00 kg
総質量 100.00 kg
長さ 0.70 m
直径 0.60 m
スパン 0.60 m
形状 Box
製造者 OATK/HARR
バスタイプ ESPASat
フェーズステータス In Orbit
所有者/国 AFRL/US

Most Searched